Wind_Speed
11 10 9 9 9 10 10 11 13 14 13 14 15 17 18 19 21 23 25 29 31 32 34 37 39 41 42 44 45 46 46 46 47 48 48 48 49 48 48 47 46 45 45 45
12 10 9 9 9 9 10 12 13 14 14 15 16 17 18 20 22 24 26 27 30 33 34 36 37 39 40 41 43 45 46 46 46 47 47 47 48 48 47 46 46 45 45 45
12 12 11 10 10 10 10 11 13 15 15 16 16 17 18 19 21 24 26 28 29 31 33 35 37 38 40 41 41 42 44 44 44 45 45 45 46 45 45 45 45 45 45 45
13 12 10 12 11 11 11 12 12 14 15 17 17 18 19 20 21 22 25 27 29 31 31 33 36 37 38 40 40 41 42 43 43 43 43 43 43 44 44 45 45 44 44 43
15 13 12 13 13 14 14 13 14 15 16 17 18 19 20 22 23 24 25 27 28 30 31 33 35 36 37 38 39 40 41 42 42 42 42 42 43 43 43 43 43 43 43 43
17 15 14 15 15 16 17 15 16 16 16 17 18 19 20 22 23 25 27 27 29 30 32 33 34 35 36 37 39 39 39 40 40 40 41 42 42 42 42 42 42 42 42 42
17 17 16 17 18 19 18 19 19 19 19 20 21 21 21 22 23 25 27 28 29 30 31 32 33 34 35 37 38 38 38 38 39 39 40 40 40 41 40 40 40 40 41 41
18 18 18 19 19 19 20 20 20 20 20 20 22 23 23 24 24 25 27 29 30 30 30 31 32 33 34 36 37 37 37 38 38 39 39 39 39 40 40 40 41 41 41 41
19 19 20 20 20 21 22 22 23 22 21 21 22 23 24 25 25 25 27 29 31 32 31 31 31 32 33 34 35 36 37 38 39 39 39 39 40 40 40 41 40 39 40 40
20 21 21 21 22 22 23 24 24 23 23 23 23 24 24 25 26 26 26 28 28 30 31 31 31 31 32 33 34 35 35 36 37 38 39 38 39 39 39 40 40 39 39 39
21 23 24 24 24 24 25 25 26 25 25 24 24 25 26 26 27 27 27 27 27 27 29 30 31 31 31 32 32 33 34 35 36 37 37 38 38 38 38 39 39 38 38 38
23 24 25 26 27 27 27 28 28 28 27 26 26 27 27 27 26 27 27 27 27 27 27 28 29 30 30 31 31 33 33 34 36 36 37 37 38 37 38 38 38 38 38 38
24 26 27 28 29 30 30 30 30 30 29 29 29 28 28 28 27 27 27 27 27 27 27 27 28 28 29 29 30 31 33 33 34 35 36 36 37 37 38 38 38 38 38 38
25 27 28 30 31 32 32 31 31 31 31 31 30 29 28 28 27 27 27 27 27 27 28 28 29 29 29 30 31 31 32 33 34 35 36 36 37 37 38 38 38 38 38 38
27 28 29 31 33 34 34 33 32 32 32 32 31 29 27 27 27 27 28 28 27 27 28 28 29 29 29 30 31 32 32 33 34 35 35 36 36 36 36 36 36 36 36 37
29 30 31 33 34 35 35 34 33 32 32 32 31 29 28 27 26 26 27 28 28 28 28 29 30 30 30 30 31 32 33 33 33 34 34 35 35 35 35 35 35 36 36 36
30 31 32 34 35 36 36 35 34 34 33 32 31 29 28 27 26 26 26 27 28 28 29 29 30 30 30 31 31 32 32 33 33 34 34 34 35 35 35 35 34 35 35 35
31 32 33 35 36 36 36 35 35 35 34 33 31 30 29 28 28 27 27 27 28 29 29 29 30 30 30 31 31 32 32 32 33 33 33 33 34 34 34 34 34 34 34 34
33 34 35 36 37 37 37 36 36 36 35 33 32 31 31 30 30 29 29 29 29 29 29 29 30 30 30 30 30 31 32 32 33 34 34 34 34 35 35 35 34 34 34 34
35 36 37 37 38 37 37 37 37 37 36 34 33 32 31 31 30 29 29 29 29 29 30 30 29 29 29 30 30 31 31 32 32 33 33 34 34 35 35 36 36 35 35 35
36 37 38 38 38 38 38 38 38 37 37 35 34 33 32 31 29 29 28 28 28 29 29 29 29 29 29 29 30 30 30 31 31 32 32 33 33 34 34 35 36 36 36 36
38 39 40 39 39 39 39 39 38 38 37 36 35 33 32 30 29 28 28 28 28 28 29 29 29 29 29 29 30 30 30 30 31 31 31 32 32 33 33 34 35 36 37 36
39 40 41 40 40 40 40 39 39 38 37 36 35 33 32 30 29 28 28 27 27 28 28 28 29 29 29 29 29 30 30 30 31 31 32 32 32 33 33 34 34 35 36 36
41 41 41 41 41 41 40 40 39 38 37 37 35 33 32 31 30 29 28 27 26 26 26 26 27 28 29 29 29 29 29 30 30 31 32 32 33 33 33 33 33 33 34 34
42 42 42 42 42 41 40 40 39 38 37 36 34 33 32 31 30 29 28 27 27 26 26 26 26 27 27 28 28 28 28 28 29 30 30 31 31 32 32 32 32 32 33 34
42 43 43 43 42 41 40 40 39 38 37 36 34 33 32 31 30 29 28 28 27 27 27 26 26 26 26 27 27 27 28 27 27 27 28 28 29 30 30 30 31 32 33 33
43 43 44 43 43 41 40 40 39 38 36 35 34 33 32 31 30 29 28 27 27 26 25 25 25 25 26 26 25 25 25 26 26 26 27 27 28 28 29 29 30 30 31 32
Wind_Direction
348 338 325 315 301 289 284 278 273 271 268 265 264 261 257 256 250 244 240 238 238 239 239 240 241 242 244 244 245 245 246 248 249 251 253 255 257 259 260 262 263 264 266 268
353 346 341 331 318 303 292 284 277 271 267 265 264 264 259 256 252 246 243 241 240 240 240 241 243 243 244 246 246 246 247 249 250 251 253 254 256 258 260 261 262 264 266 268
355 351 347 340 328 316 303 296 285 275 271 269 267 266 261 257 254 249 245 244 243 243 243 243 244 245 246 247 247 247 246 248 249 251 252 254 255 257 258 260 262 265 266 268
352 347 343 340 333 323 313 304 295 285 276 273 271 268 265 261 257 252 248 247 247 247 247 246 246 246 247 247 248 248 247 248 249 250 252 253 255 257 258 260 262 264 266 268
352 346 338 334 330 326 317 306 296 290 283 277 274 271 268 264 260 257 251 249 249 249 248 248 247 248 248 248 247 248 248 248 249 250 252 254 256 257 259 260 262 263 266 268
349 346 341 335 329 324 319 309 301 291 286 283 279 275 271 266 262 260 255 252 251 252 252 251 249 249 249 249 247 247 248 249 250 250 252 253 254 256 258 259 261 263 265 267
344 341 338 334 330 328 322 315 307 297 288 285 281 278 273 269 265 263 258 255 254 255 255 254 253 252 251 249 249 248 248 249 250 251 252 253 253 254 256 259 261 263 264 266
340 338 336 333 329 328 325 323 315 304 295 289 284 279 276 272 270 266 262 259 257 257 257 256 255 253 250 249 249 250 249 249 250 251 252 253 254 255 256 258 260 262 264 267
339 336 333 332 329 326 324 321 317 311 301 292 287 282 278 275 272 269 264 262 260 258 257 256 255 253 251 250 250 250 250 250 250 251 252 253 255 256 257 259 261 263 266 267
335 333 330 328 327 325 323 322 320 315 308 299 290 284 279 277 275 272 268 265 263 261 259 257 255 254 252 251 250 249 250 250 250 250 251 253 254 256 257 259 261 263 264 265
332 331 329 327 324 323 321 319 318 316 310 303 294 286 281 278 275 272 268 266 265 263 261 258 256 255 253 251 251 250 250 250 250 250 251 252 254 255 257 259 261 262 264 265
330 330 328 327 326 323 320 318 316 314 311 306 300 291 285 280 275 272 270 267 264 263 261 259 257 256 254 253 253 252 251 251 251 252 252 253 254 255 256 258 260 262 263 265
328 329 329 328 326 324 321 318 316 314 312 309 305 298 289 282 277 273 270 268 264 262 260 259 258 257 256 255 255 254 253 252 253 254 254 255 255 256 257 259 261 262 263 265
326 327 328 328 327 325 322 319 316 315 313 311 309 303 296 287 279 274 270 267 265 262 260 259 259 258 257 256 257 256 255 253 253 254 255 256 257 258 259 260 261 262 263 264
323 325 326 327 327 326 325 322 317 315 313 312 310 305 300 293 283 276 270 267 265 263 261 260 260 259 258 258 257 257 257 256 256 256 256 257 257 258 259 260 260 261 263 264
322 323 324 326 326 325 325 322 319 316 314 312 309 304 301 298 291 281 272 267 265 264 263 262 261 261 260 260 259 258 258 258 258 258 258 258 258 258 259 260 261 262 263 265
320 322 323 325 326 325 324 322 320 317 315 313 310 305 301 298 293 285 277 271 267 265 264 264 264 264 262 262 261 260 259 258 258 259 260 259 259 259 260 260 261 262 263 264
318 319 321 323 324 324 323 322 320 318 316 313 309 304 300 296 292 286 279 273 269 267 266 267 266 265 263 262 261 259 259 259 259 260 260 261 260 260 260 260 261 262 263 264
318 318 320 322 323 322 321 321 319 318 316 313 309 305 300 297 292 287 281 274 270 268 267 267 268 266 263 262 260 259 259 260 260 260 260 261 261 260 260 260 261 262 263 264
317 317 319 320 321 321 320 320 319 317 316 313 310 306 302 298 294 289 283 278 272 270 269 267 266 265 264 264 262 261 262 262 262 262 261 261 261 261 261 261 261 262 263 264
316 317 318 319 319 319 319 319 318 317 315 312 309 307 304 300 296 291 285 281 276 272 270 267 266 265 264 264 263 263 264 263 263 262 262 262 262 263 263 262 262 262 263 264
315 316 317 318 318 318 318 318 317 316 315 312 310 306 304 301 298 293 287 282 278 274 270 267 266 265 266 265 264 264 264 264 264 263 263 263 264 264 265 265 264 263 263 263
315 316 317 317 316 316 317 318 317 316 314 312 309 307 304 302 299 295 290 285 281 277 273 269 267 266 266 266 266 265 265 265 265 265 265 265 265 266 266 266 266 264 263 263
314 315 316 316 316 316 316 316 316 315 314 313 311 308 305 302 299 296 291 285 282 279 275 273 269 268 267 268 267 267 267 268 267 266 266 266 266 266 267 266 266 265 264 264
313 314 315 315 315 315 315 315 315 314 313 312 310 307 305 302 299 295 290 285 282 280 278 274 272 270 269 269 269 268 269 269 268 267 267 266 266 266 266 266 266 266 265 265
312 312 313 314 314 315 315 315 315 314 313 311 309 307 305 302 299 296 291 287 284 281 279 276 273 271 270 270 270 270 270 269 269 269 269 268 267 267 267 267 268 268 268 268
310 311 311 312 313 314 314 314 314 314 313 311 310 308 305 303 299 295 292 288 286 282 279 276 273 272 270 269 270 270 270 270 270 270 270 270 269 269 269 269 270 269 270 270
Height
5617 5615 5613 5613 5612 5612 5611 5610 5610 5611 5610 5610 5610 5610 5611 5612 5613 5615 5617 5620 5624 5628 5631 5635 5639 5643 5647 5651 5654 5658 5662 5666 5669 5672 5675 5678 5681 5684 5686 5688 5689 5691 5692 5694
5617 5614 5612 5611 5610 5609 5609 5608 5607 5607 5608 5607 5606 5606 5606 5607 5608 5610 5612 5614 5617 5621 5624 5627 5630 5634 5637 5641 5645 5648 5652 5655 5658 5662 5665 5668 5670 5673 5675 5677 5679 5680 5681 5683
5616 5613 5611 5610 5609 5607 5606 5605 5604 5604 5605 5603 5603 5603 5603 5603 5603 5604 5606 5608 5611 5613 5616 5619 5622 5625 5628 5631 5634 5637 5641 5645 5648 5651 5653 5656 5659 5662 5664 5666 5668 5669 5670 5671
5615 5613 5611 5612 5607 5605 5604 5602 5601 5600 5600 5599 5599 5599 5598 5598 5598 5599 5600 5602 5604 5606 5608 5610 5613 5616 5618 5621 5624 5627 5630 5634 5637 5640 5643 5646 5648 5651 5653 5655 5657 5658 5659 5660
5614 5611 5609 5608 5605 5603 5601 5600 5598 5597 5596 5595 5594 5594 5594 5593 5593 5594 5594 5595 5596 5598 5600 5602 5604 5606 5609 5612 5614 5617 5620 5623 5626 5629 5632 5635 5638 5640 5642 5644 5646 5647 5648 5649
5612 5609 5608 5607 5603 5600 5599 5596 5594 5592 5591 5590 5589 5589 5590 5588 5588 5588 5588 5589 5590 5590 5592 5593 5595 5597 5599 5601 5604 5607 5610 5613 5616 5619 5622 5625 5627 5629 5632 5633 5635 5636 5638 5639
5611 5608 5605 5603 5600 5597 5595 5594 5589 5587 5586 5585 5584 5584 5583 5582 5581 5581 5581 5581 5582 5582 5583 5584 5586 5587 5589 5591 5594 5597 5600 5603 5606 5609 5612 5614 5617 5619 5621 5623 5625 5626 5627 5628
5608 5605 5606 5600 5596 5594 5592 5587 5584 5581 5580 5579 5578 5577 5576 5575 5574 5573 5573 5573 5574 5574 5575 5576 5577 5578 5580 5582 5585 5587 5590 5593 5596 5599 5601 5604 5606 5608 5610 5612 5614 5615 5616 5617
5607 5606 5601 5596 5593 5590 5586 5583 5579 5576 5574 5572 5571 5570 5569 5568 5567 5566 5565 5565 5565 5566 5566 5567 5568 5569 5571 5573 5575 5577 5580 5583 5586 5588 5590 5593 5595 5598 5599 5601 5602 5603 5605 5606
5604 5600 5597 5593 5589 5586 5582 5578 5574 5571 5568 5566 5564 5562 5561 5560 5559 5558 5557 5556 5556 5556 5557 5558 5559 5560 5562 5564 5566 5568 5570 5573 5575 5578 5580 5582 5584 5586 5588 5590 5591 5593 5594 5595
5600 5597 5592 5589 5585 5581 5577 5573 5569 5566 5562 5559 5557 5555 5553 5552 5550 5549 5549 5548 5548 5548 5548 5549 5550 5551 5553 5555 5556 5558 5561 5563 5565 5567 5569 5572 5574 5575 5577 5579 5580 5582 5583 5584
5597 5593 5589 5585 5580 5576 5571 5567 5563 5559 5556 5552 5549 5547 5544 5543 5541 5540 5540 5539 5539 5540 5540 5541 5541 5542 5544 5545 5547 5549 5551 5553 5555 5557 5559 5561 5563 5564 5566 5568 5569 5571 5572 5573
5591 5587 5583 5579 5574 5570 5565 5560 5556 5552 5549 5545 5541 5538 5535 5533 5532 5531 5530 5530 5531 5531 5531 5532 5533 5534 5535 5536 5538 5539 5541 5543 5545 5546 5548 5550 5552 5554 5555 5557 5558 5559 5561 5562
5586 5582 5578 5573 5569 5563 5558 5553 5549 5545 5541 5537 5533 5529 5526 5524 5522 5521 5521 5521 5521 5522 5522 5523 5524 5525 5526 5527 5529 5530 5531 5533 5534 5536 5538 5539 5541 5543 5544 5546 5547 5548 5550 5550
5581 5577 5573 5568 5562 5557 5551 5546 5542 5537 5533 5529 5525 5521 5518 5515 5513 5512 5512 5512 5512 5513 5513 5514 5515 5516 5517 5518 5519 5520 5522 5523 5524 5526 5527 5529 5530 5532 5533 5535 5536 5537 5538 5539
5575 5571 5566 5562 5556 5551 5545 5540 5535 5530 5526 5521 5517 5513 5510 5507 5505 5503 5503 5503 5504 5504 5504 5504 5505 5506 5507 5508 5509 5510 5511 5513 5514 5515 5516 5518 5519 5521 5522 5523 5525 5526 5527 5527
5569 5565 5560 5555 5550 5544 5538 5533 5528 5523 5518 5514 5510 5506 5503 5500 5497 5495 5494 5494 5494 5494 5495 5495 5495 5496 5497 5497 5498 5499 5501 5502 5503 5504 5506 5507 5508 5510 5511 5512 5513 5514 5515 5516
5563 5558 5554 5549 5543 5537 5532 5526 5521 5516 5511 5506 5502 5498 5495 5492 5489 5487 5486 5485 5485 5485 5485 5485 5485 5486 5486 5487 5488 5489 5490 5491 5493 5494 5495 5496 5497 5498 5499 5501 5502 5503 5504 5505
5555 5551 5546 5541 5536 5530 5525 5519 5514 5508 5503 5498 5494 5490 5486 5483 5480 5478 5476 5475 5475 5475 5475 5475 5475 5475 5476 5476 5477 5478 5479 5480 5481 5482 5483 5484 5486 5487 5488 5489 5491 5492 5493 5493
5548 5543 5539 5534 5528 5523 5517 5511 5506 5500 5495 5490 5485 5481 5477 5474 5471 5468 5466 5465 5465 5465 5465 5465 5465 5465 5465 5466 5466 5467 5468 5469 5470 5471 5472 5473 5474 5475 5476 5477 5479 5480 5481 5482
5540 5535 5530 5525 5520 5515 5509 5503 5498 5492 5486 5481 5477 5472 5468 5465 5462 5459 5457 5456 5455 5454 5454 5454 5454 5455 5455 5455 5456 5457 5457 5458 5459 5460 5460 5461 5462 5463 5464 5465 5466 5468 5469 5470
5531 5527 5522 5517 5511 5506 5500 5495 5489 5483 5478 5472 5468 5463 5459 5456 5453 5450 5448 5447 5446 5445 5444 5444 5444 5444 5445 5445 5446 5446 5447 5447 5448 5449 5449 5450 5451 5452 5452 5453 5454 5455 5456 5457
5522 5518 5513 5508 5502 5497 5491 5485 5480 5474 5469 5464 5459 5455 5451 5447 5444 5442 5440 5438 5436 5435 5435 5434 5434 5435 5435 5435 5435 5436 5436 5437 5437 5438 5438 5439 5440 5440 5441 5441 5442 5443 5444 5445
5513 5508 5503 5498 5493 5487 5482 5476 5470 5465 5460 5455 5450 5446 5442 5439 5436 5433 5431 5429 5428 5426 5425 5425 5425 5425 5425 5425 5426 5426 5426 5426 5427 5427 5427 5428 5428 5429 5429 5430 5430 5431 5432 5432
5503 5499 5493 5488 5483 5478 5472 5466 5461 5456 5450 5446 5441 5437 5433 5430 5427 5424 5422 5420 5419 5418 5417 5416 5415 5415 5416 5416 5416 5416 5416 5416 5416 5416 5417 5417 5417 5417 5418 5418 5418 5419 5420 5421
5493 5489 5483 5478 5473 5467 5462 5457 5452 5446 5441 5437 5432 5428 5425 5421 5418 5415 5413 5411 5410 5408 5408 5407 5406 5406 5407 5407 5407 5407 5407 5407 5407 5407 5407 5407 5407 5407 5407 5407 5408 5408 5408 5409
5483 5478 5473 5468 5462 5457 5452 5447 5442 5437 5432 5428 5424 5420 5416 5412 5409 5406 5404 5402 5401 5399 5398 5398 5398 5398 5398 5398 5398 5398 5398 5398 5398 5397 5397 5397 5397 5397 5397 5397 5397 5397 5397 5397